Tracking 19638 objects as of 19-Apr-2019
HD Live streaming from Space Station
objects crossing your sky now

SL-12 R/B(2)

Track SL-12 R/B(2) now!


NORAD ID: 38104
Int'l Code: 2012-012D
Perigee: 35,725.8 km
Apogee: 35,851.9 km
Inclination: 2.9 °
Period: 1,435.8 minutes
Semi major axis: 42159 km
RCS: 0.003 m2 (small)
Launch date: March 30, 2012
Source: Commonwealth of Independent States (former USSR) (CIS)
Launch site: TYURATAM MISSILE AND SPACE COMPLEX (TTMTR)

Note: This is a ROCKET BODY
aabbcc
Your satellite tracking list
Your tracking list is empty




NASA's NSSDC Master Catalog

Two Line Element Set (TLE):
1 38104U 12012D   19109.36885831 -.00000051  00000-0  00000+0 0  9990
2 38104   2.9322  72.6171 0014956 245.5181  17.8691  1.00289384 25803
Source of the keplerian elements: AFSPC